GW0787 Weather Reports


time (UTC)temp
F
wind
direction
speed
knots
gust
knots
rain 1hr
in
rain 24hr
in
rain mn
in
humidity
%
barometer
mb
20260506221617 74 140 5.2 13.0 0.00 0.00 0.00 40 1013.6
20260506220101 73 139 2.6 8.7 0.00 0.00 0.00 36 1013.7
20260506214600 73 53 2.6 7.8 0.00 0.00 0.00 37 1013.7
20260506213103 73 137 3.5 7.8 0.00 0.00 0.00 34 1013.7
20260506211558 74 153 3.5 10.4 0.00 0.00 0.00 33 1013.8
20260506204558 74 64 0.9 7.0 0.00 0.00 0.00 32 1013.5
20260506203120 74 29 2.6 10.4 0.00 0.00 0.00 33 1013.6
20260506201555 74 207 3.5 20.0 0.00 0.00 0.00 34 1013.6
20260506200058 73 220 0.9 14.8 0.00 0.00 0.00 33 1013.5
20260506194555 74 241 6.1 17.4 0.00 0.00 0.00 31 1013.5
20260506193103 73 213 2.6 7.8 0.00 0.00 0.00 32 1013.4
20260506191553 73 298 5.2 14.8 0.00 0.00 0.00 29 1013.6
20260506190053 73 247 4.3 11.3 0.00 0.00 0.00 31 1013.6
20260506184553 73 4 3.5 14.8 0.00 0.00 0.00 29 1013.5
20260506183053 73 231 6.1 13.0 0.00 0.00 0.00 32 1013.5
20260506181554 73 149 2.6 9.6 0.00 0.00 0.00 36 1013.5
20260506180050 73 56 3.5 7.0 0.00 0.00 0.00 39 1013.4
20260506174544 72 4 3.5 7.0 0.00 0.00 0.00 39 1013.2
20260506173045 70 192 3.5 8.7 0.00 0.00 0.00 45 1013.4
20260506171538 69 73 4.3 9.6 0.00 0.00 0.00 47 1013.2
20260506170043 69 123 7.0 13.0 0.00 0.00 0.00 50 1013.4
20260506164545 67 46 5.2 12.2 0.00 0.00 0.00 50 1013.3
20260506163029 66 47 5.2 11.3 0.00 0.00 0.00 54 1013.6
20260506161525 64 86 3.5 11.3 0.00 0.00 0.00 57 1013.8
20260506160021 64 81 7.0 13.0 0.00 0.00 0.00 57 1013.8
20260506154518 62 77 5.2 12.2 0.00 0.00 0.00 61 1014.0
20260506153013 58 90 1.7 4.3 0.00 0.00 0.00 72 1014.1
20260506151508 55 127 0.9 7.0 0.00 0.00 0.00 82 1014.2
20260506150006 51 183 0.0 2.6 0.00 0.00 0.00 90 1014.4
20260506144511 48 183 0.0 2.6 0.00 0.00 0.00 91 1014.6
20260506143004 46 120 0.9 3.5 0.00 0.00 0.00 90 1014.7
20260506141509 44 160 0.9 2.6 0.00 0.00 0.00 91 1014.4
20260506140002 44 174 0.9 2.6 0.00 0.00 0.00 91 1014.3
20260506134601 44 226 0.9 4.3 0.00 0.00 0.00 91 1014.5
20260506133115 44 159 0.0 1.7 0.00 0.00 0.00 91 1014.5
20260506131615 44 156 0.0 1.7 0.00 0.00 0.00 91 1014.5
20260506130057 44 156 0.0 1.7 0.00 0.00 0.00 90 1014.5
20260506124557 44 156 0.0 1.7 0.00 0.00 0.00 90 1014.3
20260506123054 44 156 0.0 0.0 0.00 0.00 0.00 90 1014.3
20260506121555 45 157 0.0 0.9 0.00 0.00 0.00 90 1014.2
20260506120059 45 157 0.0 0.0 0.00 0.00 0.00 90 1014.1
20260506114547 45 156 0.0 0.0 0.00 0.00 0.00 89 1014.2
20260506113045 45 156 0.0 1.7 0.00 0.00 0.00 90 1014.0
20260506111546 46 156 0.0 0.0 0.00 0.00 0.00 89 1014.0
20260506110052 46 156 0.0 0.0 0.00 0.00 0.00 89 1014.0
20260506104550 46 155 0.0 1.7 0.00 0.00 0.00 89 1013.7
20260506103044 46 155 0.0 2.6 0.00 0.00 0.00 88 1013.6
20260506101536 47 153 0.0 1.7 0.00 0.00 0.00 88 1013.6
20260506100033 47 150 0.0 1.7 0.00 0.00 0.00 88 1013.6
20260506094531 47 149 0.0 3.5 0.00 0.00 0.00 87 1013.4
20260506093028 48 174 0.0 0.9 0.00 0.00 0.00 86 1013.5
20260506091525 48 172 0.0 0.9 0.00 0.00 0.00 86 1013.4
20260506090023 49 173 0.0 0.0 0.00 0.00 0.00 85 1013.4
20260506084543 49 170 0.0 0.9 0.00 0.00 0.00 84 1013.4
20260506083019 49 171 0.0 0.9 0.00 0.00 0.00 84 1013.3
20260506081518 50 171 0.0 1.7 0.00 0.00 0.00 84 1013.3
20260506073009 51 209 0.0 1.7 0.00 0.00 0.00 81 1013.0
20260506071506 52 209 0.0 0.9 0.00 0.00 0.00 81 1012.8
20260506061503 54 247 0.0 1.7 0.00 0.00 0.00 77 1012.3
20260506050103 59 247 0.0 2.6 0.00 0.00 0.00 70 1011.9
20260506044559 60 314 0.0 0.0 0.00 0.00 0.00 68 1011.8
20260506043058 61 315 0.0 1.7 0.00 0.00 0.00 66 1011.6
20260506041607 62 309 0.0 2.6 0.00 0.00 0.00 63 1011.4
20260506040059 64 177 0.0 0.0 0.00 0.00 0.00 58 1011.1
20260506034558 67 178 0.9 2.6 0.00 0.00 0.00 52 1010.9
20260506033100 68 214 0.9 3.5 0.00 0.00 0.00 50 1010.7
20260506031556 70 132 0.9 3.5 0.00 0.00 0.00 45 1010.5
20260506030055 71 212 2.6 9.6 0.00 0.00 0.00 43 1010.4
20260506024556 71 222 0.0 4.3 0.00 0.00 0.00 45 1010.2
20260506023107 73 219 1.7 5.2 0.00 0.00 0.00 42 1010.1
20260506021612 74 211 1.7 7.0 0.00 0.00 0.00 37 1010.0
20260506020054 76 212 1.7 3.5 0.00 0.00 0.00 36 1009.9
20260506014553 77 255 0.9 5.2 0.00 0.00 0.00 36 1009.8
20260506013107 78 226 0.9 7.8 0.00 0.00 0.00 29 1009.9
20260506011612 78 21 0.9 8.7 0.00 0.00 0.00 28 1009.7
20260506010056 79 125 0.0 7.8 0.00 0.00 0.00 29 1009.6
20260506004547 81 127 2.6 6.1 0.00 0.00 0.00 27 1009.6
20260506003045 83 214 1.7 6.1 0.00 0.00 0.00 26 1009.6
20260506001547 82 161 1.7 4.3 0.00 0.00 0.00 28 1009.6
20260506000045 81 37 1.7 6.1 0.00 0.00 0.00 27 1009.6
20260505234541 80 85 1.7 8.7 0.00 0.00 0.00 27 1009.7
20260505233039 80 25 3.5 9.6 0.00 0.00 0.00 26 1009.8
20260505231549 82 218 4.3 8.7 0.00 0.00 0.00 26 1009.9
20260505230036 82 187 0.0 6.1 0.00 0.00 0.00 26 1009.8
20260505224536 81 326 3.5 10.4 0.00 0.00 0.00 25 1010.0
20260505223035 84 162 3.5 8.7 0.00 0.00 0.00 26 1009.9